HI1010 MDJB-TAPA

Flight info

Callsign HI1010
Flight time 1h 13m
Altitude 40000
Route OLITA UL577 CDO UT15 MELLA G633 MAZ RTE12 JOSHE RTE4 VEDAS A555 COY DCT ANU
Aircraft C750/M-SBDE3FGHRWXY/S

Departure

Time 2026-05-06 04:29
Airport La Isabela International Airport (MDJB)

Arrival

Time 2026-05-06 05:42
Airport V. C. Bird International Airport (TAPA)
Time Latitude Longitude Altitude Speed Heading
2026-05-06 04:18 18.57639 -69.98279 99 ft 0 kts 95°
2026-05-06 04:23 18.57639 -69.98278 99 ft 1 kts 95°
2026-05-06 04:23 18.57634 -69.98273 99 ft 1 kts 139°
2026-05-06 04:23 18.57629 -69.98274 99 ft 1 kts 198°
2026-05-06 04:24 18.57627 -69.98281 99 ft 2 kts 242°
2026-05-06 04:24 18.57611 -69.98310 99 ft 6 kts 228°
2026-05-06 04:24 18.57566 -69.98327 99 ft 8 kts 186°
2026-05-06 04:24 18.57511 -69.98349 99 ft 10 kts 215°
2026-05-06 04:25 18.57450 -69.98395 99 ft 12 kts 216°
2026-05-06 04:25 18.57378 -69.98450 99 ft 14 kts 216°
2026-05-06 04:25 18.57292 -69.98516 97 ft 17 kts 216°
2026-05-06 04:25 18.57178 -69.98574 95 ft 20 kts 187°
2026-05-06 04:26 18.57030 -69.98593 94 ft 22 kts 187°
2026-05-06 04:26 18.56873 -69.98612 97 ft 24 kts 186°
2026-05-06 04:26 18.56703 -69.98631 94 ft 25 kts 186°
2026-05-06 04:26 18.56586 -69.98645 96 ft 13 kts 187°
2026-05-06 04:27 18.56521 -69.98618 95 ft 7 kts 152°
2026-05-06 04:27 18.56488 -69.98638 95 ft 7 kts 262°
2026-05-06 04:27 18.56511 -69.98653 95 ft 2 kts
2026-05-06 04:27 18.56513 -69.98653 95 ft 0 kts
2026-05-06 04:28 18.56848 -69.98613 96 ft 110 kts
2026-05-06 04:28 18.57826 -69.98494 354 ft 154 kts
2026-05-06 04:29 18.58884 -69.98357 1174 ft 157 kts
2026-05-06 04:29 18.60071 -69.98375 1452 ft 196 kts 343°
2026-05-06 04:29 18.61148 -69.99379 1812 ft 223 kts 297°
2026-05-06 04:29 18.61298 -70.01017 2319 ft 237 kts 253°
2026-05-06 04:30 18.60342 -70.02436 3023 ft 241 kts 217°
2026-05-06 04:30 18.58859 -70.03205 3756 ft 244 kts 191°
2026-05-06 04:30 18.57136 -70.03328 4545 ft 254 kts 178°
2026-05-06 04:30 18.55341 -70.03115 5404 ft 262 kts 167°
2026-05-06 04:31 18.53551 -70.02682 6427 ft 268 kts 165°
2026-05-06 04:31 18.51727 -70.02118 7250 ft 277 kts 156°
2026-05-06 04:31 18.50045 -70.01138 8414 ft 275 kts 148°
2026-05-06 04:31 18.48526 -70.00129 9493 ft 278 kts 147°
2026-05-06 04:32 18.46807 -69.98966 10521 ft 283 kts 147°
2026-05-06 04:32 18.45170 -69.97768 11315 ft 291 kts 139°
2026-05-06 04:32 18.43909 -69.96037 12156 ft 297 kts 120°
2026-05-06 04:32 18.43276 -69.93944 13003 ft 305 kts 98°
2026-05-06 04:33 18.43325 -69.91742 13884 ft 309 kts 85°
2026-05-06 04:33 18.43535 -69.89459 14646 ft 314 kts 86°
2026-05-06 04:33 18.43588 -69.87115 15427 ft 320 kts 92°
2026-05-06 04:33 18.43500 -69.84749 16240 ft 324 kts 93°
2026-05-06 04:34 18.43462 -69.83175 16784 ft 328 kts 91°
2026-05-06 04:34 18.43468 -69.80750 17608 ft 334 kts 90°
2026-05-06 04:34 18.43486 -69.78278 18455 ft 339 kts 90°
2026-05-06 04:34 18.43469 -69.75764 19237 ft 344 kts 91°
2026-05-06 04:35 18.43443 -69.73217 20042 ft 349 kts 90°
2026-05-06 04:35 18.43432 -69.70634 20874 ft 353 kts 90°
2026-05-06 04:35 18.43425 -69.68024 21685 ft 358 kts 89°
2026-05-06 04:35 18.43255 -69.65389 22409 ft 365 kts 97°
2026-05-06 04:36 18.42868 -69.62683 23282 ft 369 kts 98°
2026-05-06 04:36 18.42507 -69.60065 23997 ft 374 kts 97°
2026-05-06 04:36 18.42138 -69.57217 24702 ft 379 kts 97°
2026-05-06 04:36 18.41775 -69.54486 25367 ft 384 kts 97°
2026-05-06 04:37 18.41389 -69.51668 26064 ft 388 kts 98°
2026-05-06 04:37 18.41259 -69.50720 26296 ft 390 kts 98°
2026-05-06 04:38 18.40930 -69.48293 26885 ft 394 kts 98°
2026-05-06 04:38 18.40544 -69.45412 27565 ft 399 kts 98°
2026-05-06 04:39 18.40149 -69.42484 28251 ft 404 kts 98°
2026-05-06 04:39 18.39749 -69.39544 28916 ft 410 kts 98°
2026-05-06 04:39 18.39343 -69.36559 29578 ft 415 kts 98°
2026-05-06 04:39 18.38938 -69.33569 30216 ft 419 kts 98°
2026-05-06 04:40 18.38527 -69.30551 30746 ft 424 kts 98°
2026-05-06 04:40 18.38105 -69.27455 31297 ft 428 kts 98°
2026-05-06 04:40 18.37681 -69.24340 31836 ft 433 kts 98°
2026-05-06 04:40 18.37250 -69.21186 32362 ft 437 kts 98°
2026-05-06 04:41 18.36819 -69.18031 32883 ft 441 kts 98°
2026-05-06 04:41 18.36378 -69.14809 33402 ft 445 kts 98°
2026-05-06 04:41 18.35946 -69.11658 33896 ft 450 kts 98°
2026-05-06 04:41 18.35496 -69.08375 34368 ft 454 kts 98°
2026-05-06 04:42 18.35042 -69.05073 34818 ft 457 kts 98°
2026-05-06 04:42 18.34587 -69.01766 35276 ft 460 kts 98°
2026-05-06 04:42 18.34125 -68.98414 35742 ft 463 kts 99°
2026-05-06 04:42 18.33659 -68.95037 36220 ft 465 kts 99°
2026-05-06 04:43 18.33194 -68.91665 36697 ft 467 kts 99°
2026-05-06 04:43 18.32813 -68.88909 37101 ft 468 kts 99°
2026-05-06 04:43 18.32371 -68.85723 37570 ft 469 kts 99°
2026-05-06 04:43 18.31899 -68.82317 38088 ft 471 kts 99°
2026-05-06 04:44 18.31426 -68.78908 38606 ft 472 kts 99°
2026-05-06 04:44 18.30950 -68.75487 39069 ft 473 kts 99°
2026-05-06 04:44 18.30473 -68.72058 39520 ft 474 kts 99°
2026-05-06 04:44 18.30000 -68.68669 39966 ft 474 kts 99°
2026-05-06 04:45 18.29505 -68.65123 40070 ft 485 kts 99°
2026-05-06 04:45 18.29010 -68.61587 40083 ft 498 kts 99°
2026-05-06 04:45 18.28683 -68.59256 40090 ft 505 kts 99°
2026-05-06 04:45 18.28165 -68.55549 40090 ft 517 kts 99°
2026-05-06 04:46 18.27638 -68.51792 40088 ft 528 kts 99°
2026-05-06 04:46 18.26539 -68.43983 40089 ft 545 kts 99°
2026-05-06 04:47 18.25398 -68.35998 40091 ft 556 kts 99°
2026-05-06 04:47 18.24166 -68.27917 40086 ft 563 kts 99°
2026-05-06 04:48 18.22965 -68.19721 40080 ft 563 kts 99°
2026-05-06 04:48 18.21735 -68.11593 40092 ft 561 kts 99°
2026-05-06 04:49 18.20535 -68.03536 40072 ft 559 kts 99°
2026-05-06 04:49 18.20149 -67.95424 40070 ft 557 kts 86°
2026-05-06 04:50 18.20944 -67.87315 40093 ft 555 kts 83°
2026-05-06 04:50 18.21353 -67.79861 40087 ft 555 kts 87°
2026-05-06 04:51 18.21923 -67.71736 40093 ft 554 kts 84°
2026-05-06 04:51 18.22473 -67.63645 40082 ft 554 kts 86°
2026-05-06 04:52 18.22989 -67.55544 40082 ft 554 kts 85°
2026-05-06 04:52 18.23558 -67.47374 40075 ft 554 kts 86°
2026-05-06 04:53 18.23965 -67.40695 40075 ft 553 kts 85°
2026-05-06 04:53 18.24531 -67.32522 40078 ft 553 kts 85°
2026-05-06 04:54 18.25033 -67.24443 40085 ft 553 kts 85°
2026-05-06 04:54 18.25568 -67.16412 40085 ft 553 kts 85°
2026-05-06 04:55 18.25544 -67.08317 40107 ft 553 kts 92°
2026-05-06 04:55 18.25308 -67.00212 40105 ft 553 kts 90°
2026-05-06 04:56 18.25205 -66.92142 40098 ft 553 kts 91°
2026-05-06 04:56 18.24973 -66.83985 40106 ft 553 kts 91°
2026-05-06 04:57 18.24845 -66.76012 40098 ft 553 kts 91°
2026-05-06 04:57 18.24628 -66.67825 40105 ft 553 kts 91°
2026-05-06 04:58 18.24470 -66.59786 40113 ft 553 kts 91°
2026-05-06 05:00 18.24178 -66.52356 40074 ft 553 kts 96°
2026-05-06 05:01 18.22282 -66.44566 40099 ft 552 kts 112°
2026-05-06 05:01 18.18951 -66.37307 40112 ft 550 kts 119°
2026-05-06 05:02 18.15623 -66.30113 40097 ft 550 kts 113°
2026-05-06 05:02 18.12782 -66.22818 40105 ft 550 kts 115°
2026-05-06 05:03 18.09450 -66.15442 40097 ft 550 kts 115°
2026-05-06 05:03 18.06429 -66.08025 40099 ft 549 kts 114°
2026-05-06 05:04 18.03259 -66.00802 40090 ft 549 kts 115°
2026-05-06 05:04 18.00187 -65.93482 40086 ft 549 kts 114°
2026-05-06 05:05 17.97437 -65.85937 40079 ft 549 kts 104°
2026-05-06 05:05 17.95957 -65.78025 40091 ft 548 kts 99°
2026-05-06 05:06 17.94295 -65.70170 40098 ft 548 kts 104°
2026-05-06 05:06 17.92689 -65.62350 40099 ft 548 kts 101°
2026-05-06 05:07 17.91106 -65.54570 40093 ft 548 kts 103°
2026-05-06 05:07 17.89459 -65.46752 40093 ft 548 kts 102°
2026-05-06 05:08 17.87869 -65.38920 40095 ft 547 kts 102°
2026-05-06 05:08 17.86495 -65.32449 40087 ft 547 kts 102°
2026-05-06 05:09 17.84893 -65.24613 40090 ft 547 kts 102°
2026-05-06 05:09 17.83335 -65.17221 40095 ft 546 kts 102°
2026-05-06 05:10 17.81686 -65.09262 40086 ft 546 kts 102°
2026-05-06 05:10 17.80052 -65.01486 40102 ft 546 kts 102°
2026-05-06 05:11 17.78435 -64.93751 40103 ft 545 kts 102°
2026-05-06 05:11 17.76798 -64.85970 40107 ft 545 kts 102°
2026-05-06 05:12 17.75168 -64.78215 40110 ft 545 kts 102°
2026-05-06 05:12 17.73529 -64.70451 40107 ft 544 kts 102°
2026-05-06 05:13 17.71943 -64.62651 40108 ft 543 kts 101°
2026-05-06 05:13 17.70377 -64.54843 40107 ft 543 kts 102°
2026-05-06 05:14 17.68796 -64.47129 40101 ft 543 kts 102°
2026-05-06 05:14 17.67313 -64.39765 40104 ft 543 kts 102°
2026-05-06 05:15 17.65740 -64.32105 40096 ft 543 kts 102°
2026-05-06 05:15 17.64178 -64.24410 40091 ft 543 kts 102°
2026-05-06 05:16 17.62622 -64.16832 40096 ft 543 kts 102°
2026-05-06 05:16 17.61038 -64.09090 40095 ft 543 kts 102°
2026-05-06 05:17 17.59434 -64.01295 40091 ft 543 kts 102°
2026-05-06 05:17 17.57926 -63.93962 40079 ft 543 kts 102°
2026-05-06 05:18 17.56409 -63.86611 40086 ft 543 kts 102°
2026-05-06 05:18 17.54975 -63.79670 39969 ft 546 kts 102°
2026-05-06 05:18 17.54172 -63.75787 39507 ft 552 kts 102°
2026-05-06 05:19 17.53348 -63.71811 39021 ft 554 kts 102°
2026-05-06 05:19 17.52526 -63.67847 38494 ft 555 kts 102°
2026-05-06 05:19 17.51694 -63.63841 37998 ft 556 kts 102°
2026-05-06 05:19 17.50875 -63.59899 37511 ft 556 kts 102°
2026-05-06 05:20 17.50066 -63.56013 37037 ft 557 kts 102°
2026-05-06 05:20 17.49221 -63.51952 36535 ft 558 kts 102°
2026-05-06 05:20 17.48429 -63.48151 36067 ft 558 kts 102°
2026-05-06 05:20 17.47621 -63.44281 35584 ft 540 kts 102°
2026-05-06 05:21 17.46821 -63.40450 35104 ft 523 kts 102°
2026-05-06 05:21 17.46045 -63.36739 34646 ft 509 kts 103°
2026-05-06 05:21 17.45308 -63.33218 34212 ft 498 kts 103°
2026-05-06 05:21 17.44575 -63.29719 33754 ft 487 kts 103°
2026-05-06 05:22 17.43852 -63.26270 33320 ft 475 kts 103°
2026-05-06 05:22 17.43149 -63.22922 32907 ft 464 kts 103°
2026-05-06 05:22 17.42511 -63.19883 32537 ft 455 kts 103°
2026-05-06 05:22 17.41841 -63.16698 32133 ft 446 kts 103°
2026-05-06 05:23 17.41175 -63.13533 31723 ft 438 kts 103°
2026-05-06 05:23 17.40516 -63.10401 31316 ft 431 kts 103°
2026-05-06 05:23 17.39246 -63.04376 30544 ft 417 kts 103°
2026-05-06 05:24 17.38625 -63.01434 30165 ft 412 kts 103°
2026-05-06 05:24 17.38012 -62.98532 29724 ft 406 kts 103°
2026-05-06 05:24 17.37406 -62.95664 29293 ft 401 kts 103°
2026-05-06 05:24 17.36802 -62.92811 28865 ft 397 kts 103°
2026-05-06 05:25 17.36213 -62.90027 28451 ft 393 kts 103°
2026-05-06 05:25 17.35619 -62.87224 28034 ft 389 kts 103°
2026-05-06 05:25 17.35032 -62.84453 27626 ft 386 kts 103°
2026-05-06 05:25 17.34452 -62.81721 27248 ft 383 kts 103°
2026-05-06 05:26 17.33877 -62.79011 26873 ft 379 kts 103°
2026-05-06 05:26 17.33308 -62.76334 26507 ft 377 kts 103°
2026-05-06 05:26 17.32739 -62.73657 26132 ft 374 kts 103°
2026-05-06 05:26 17.32366 -62.71903 25904 ft 372 kts 103°
2026-05-06 05:27 17.31794 -62.69216 25542 ft 370 kts 103°
2026-05-06 05:27 17.31265 -62.66732 25211 ft 367 kts 103°
2026-05-06 05:27 17.30898 -62.65009 24988 ft 366 kts 103°
2026-05-06 05:27 17.30763 -62.64377 24908 ft 365 kts 103°
2026-05-06 05:28 17.30308 -62.62240 24630 ft 363 kts 104°
2026-05-06 05:28 17.29763 -62.59687 24301 ft 361 kts 104°
2026-05-06 05:28 17.29216 -62.57122 23976 ft 359 kts 104°
2026-05-06 05:28 17.28670 -62.54568 23649 ft 357 kts 104°
2026-05-06 05:29 17.28129 -62.52037 23262 ft 355 kts 103°
2026-05-06 05:29 17.27591 -62.49524 22882 ft 353 kts 103°
2026-05-06 05:29 17.27058 -62.47033 22511 ft 351 kts 103°
2026-05-06 05:29 17.26525 -62.44543 22140 ft 349 kts 103°
2026-05-06 05:30 17.25992 -62.42060 21779 ft 348 kts 103°
2026-05-06 05:30 17.25460 -62.39577 21423 ft 346 kts 102°
2026-05-06 05:30 17.24933 -62.37120 21079 ft 345 kts 102°
2026-05-06 05:30 17.24406 -62.34665 20739 ft 344 kts 102°
2026-05-06 05:31 17.23880 -62.32220 20406 ft 343 kts 102°
2026-05-06 05:31 17.23357 -62.29783 20080 ft 342 kts 101°
2026-05-06 05:31 17.22834 -62.27352 19757 ft 341 kts 101°
2026-05-06 05:31 17.22318 -62.24959 19446 ft 340 kts 101°
2026-05-06 05:32 17.21798 -62.22543 19138 ft 339 kts 101°
2026-05-06 05:32 17.21276 -62.20136 18830 ft 337 kts 101°
2026-05-06 05:32 17.20266 -62.17926 18351 ft 344 kts 127°
2026-05-06 05:32 17.18653 -62.16079 17976 ft 341 kts 129°
2026-05-06 05:33 17.17205 -62.14104 17661 ft 338 kts 124°
2026-05-06 05:33 17.15821 -62.12130 17366 ft 335 kts 126°
2026-05-06 05:33 17.14386 -62.10294 17064 ft 329 kts 129°
2026-05-06 05:33 17.12994 -62.08595 16505 ft 302 kts 129°
2026-05-06 05:34 17.11664 -62.06899 15613 ft 292 kts 128°
2026-05-06 05:34 17.10417 -62.05265 14704 ft 286 kts 129°
2026-05-06 05:34 17.09173 -62.03660 13802 ft 279 kts 130°
2026-05-06 05:34 17.07961 -62.02116 12824 ft 271 kts 129°
2026-05-06 05:35 17.06780 -62.00607 11872 ft 264 kts 129°
2026-05-06 05:35 17.05633 -61.99134 10952 ft 258 kts 128°
2026-05-06 05:35 17.04643 -61.97624 9995 ft 250 kts 112°
2026-05-06 05:35 17.04375 -61.95886 8955 ft 236 kts 89°
2026-05-06 05:36 17.04779 -61.94268 7904 ft 229 kts 66°
2026-05-06 05:36 17.05590 -61.92891 6886 ft 214 kts 59°
2026-05-06 05:36 17.06370 -61.91615 5852 ft 204 kts 60°
2026-05-06 05:36 17.07100 -61.90378 4815 ft 193 kts 62°
2026-05-06 05:37 17.07807 -61.89177 3720 ft 193 kts 61°
2026-05-06 05:37 17.08508 -61.87991 2696 ft 189 kts 61°
2026-05-06 05:37 17.09179 -61.86864 1869 ft 173 kts 60°
2026-05-06 05:37 17.09762 -61.85887 1413 ft 146 kts 60°
2026-05-06 05:38 17.10260 -61.85049 1127 ft 125 kts 62°
2026-05-06 05:38 17.10693 -61.84327 920 ft 110 kts 60°
2026-05-06 05:38 17.10958 -61.83886 782 ft 104 kts 59°
2026-05-06 05:40 17.11300 -61.83286 555 ft 108 kts 59°
2026-05-06 05:40 17.11743 -61.82557 586 ft 121 kts 61°
2026-05-06 05:41 17.12150 -61.81848 488 ft 111 kts 62°
2026-05-06 05:41 17.12549 -61.81173 293 ft 107 kts 60°
2026-05-06 05:41 17.12945 -61.80504 135 ft 107 kts 60°
2026-05-06 05:41 17.13317 -61.79866 64 ft 95 kts 60°
2026-05-06 05:42 17.13633 -61.79329 62 ft 76 kts 59°
2026-05-06 05:42 17.13842 -61.78976 57 ft 41 kts 57°
2026-05-06 05:42 17.13982 -61.78741 62 ft 37 kts 58°
2026-05-06 05:42 17.14078 -61.78557 66 ft 24 kts 84°
2026-05-06 05:43 17.14088 -61.78442 69 ft 13 kts 99°
2026-05-06 05:43 17.14075 -61.78346 69 ft 15 kts 98°
2026-05-06 05:43 17.14065 -61.78237 67 ft 14 kts 94°
2026-05-06 05:43 17.14059 -61.78159 65 ft 5 kts 94°
2026-05-06 05:44 17.14035 -61.78146 64 ft 5 kts 231°
2026-05-06 05:44 17.14035 -61.78165 62 ft 0 kts 272°